Flag for Germany Weather past 2 weeks in Gladbeck, North Rhine-Westphalia, Germany

Now
67 °F

Partly sunny.


Feels Like: 67 °F
Forecast: 54 / 74 °F
Wind: 5 mph from West

Location: Duesseldorf

Current Time: May 4, 2015 at 4:05:22 PM

Latest Report: May 4, 2015 at 3:00 PM


Visibility: 37 mi

Pressure: 29.80 "Hg

Humidity: 55%

Dew point: 50 °F

Location of GladbeckLocation

Historic Weather in Gladbeck — Graph

°F

Gladbeck temperature yesterday

Maximum temperature yesterday: 62 °F (at 2:00 PM)
Minimum temperature yesterday: 46 °F (at 4:00 AM)
Average temperature yesterday: 56 °F

Past Weeks' High & Low Weather Summary

 TemperatureHumidityPressure
High70 °F (Apr 24, 6:00 PM)99% (May 1, 3:00 AM)30.47 "Hg (May 1, 3:00 AM)
Low33 °F (May 1, 6:00 AM)29% (Apr 21, 4:00 PM)29.58 "Hg (May 3, 7:00 PM)
Average52 °F69%29.98 "Hg
* Reported Apr 19 3:00 PM — May 4 3:00 PM, Gladbeck, Weather by CustomWeather, © 2015

Note: Actual official high and low records may vary slightly from our data, if they occured in-between our weather recording intervals... More about our weather records

Advertising

Gladbeck weather history for previous 24 hours

 ConditionsComfort  
Time TempWeatherWind HumidityBarometerVisibility
3:00 PM
Mon, May 4
67 °FPartly sunny.5 mph55%29.80 "Hg37 mi
2:00 PM64 °FOvercast.6 mph59%29.80 "Hg31 mi
1:00 PM63 °FOvercast.6 mph66%29.81 "Hg31 mi
12:00 PM61 °FOvercast.6 mph75%29.82 "Hg31 mi
10:00 AM59 °FOvercast.6 mph78%29.79 "Hg31 mi
9:00 AM59 °FScattered clouds.7 mph78%29.78 "Hg28 mi
8:00 AM58 °FScattered clouds.6 mph85%29.75 "Hg16 mi
7:00 AM57 °FOvercast.3 mph89%29.74 "Hg25 mi
6:00 AM56 °FOvercast.3 mph94%29.74 "Hg12 mi
5:00 AM56 °FOvercast.3 mph89%29.73 "Hg19 mi
4:00 AM57 °FOvercast.3 mph90%29.72 "Hg19 mi
3:00 AM56 °FOvercast.3 mph92%29.72 "Hg22 mi
2:00 AM57 °FOvercast.5 mph91%29.71 "Hg25 mi
1:00 AM58 °FOvercast.3 mph91%29.70 "Hg25 mi
12:00 AM58 °FOvercast.5 mph93%29.67 "Hg25 mi
10:00 PM
Sun, May 3
59 °FSprinkles. Overcast.5 mph89%29.63 "Hg6 mi
9:00 PM60 °FOvercast.5 mph95%29.60 "Hg12 mi
8:00 PM61 °FOvercast.6 mph93%29.59 "Hg16 mi
7:00 PM60 °FLow clouds.6 mph94%29.58 "Hg12 mi
6:00 PM60 °FRain. Low clouds.6 mph97%29.59 "Hg4 mi
4:00 PM59 °FRain. Low clouds.6 mph95%29.61 "Hg4 mi
Weather by CustomWeather, © 2015

See weather overviewHow to use our weather pages